Simultaneous Nadir Overpasses (SNOs) Predictions

Prediction of SNOs between GOES-15 and NOAA-20 Satellite Orbit:

Table of predicted SNOs for the next 14.0 days since TLE Epoch: 2/5/2022
Index Date Time (GOES-15) GOES-15 Lat,Lon NOAA-20 Lat,Lon Distance(km) Time Diff (sec)
1 02/05/2022 21:51:52 -0.00,-128.20 0.36,-126.46 197.31 80
2 02/07/2022 10:13:42 0.00,-128.17 0.78,-131.75 407.06 80
3 02/08/2022 09:52:18 -0.00,-128.15 -0.23,-127.22 107.40 80
4 02/09/2022 22:14:17 0.00,-128.14 -0.96,-132.52 499.02 80
5 02/10/2022 21:58:13 0.01,-128.13 0.05,-128.00 15.20 80
6 02/13/2022 10:01:19 -0.01,-128.07 0.13,-128.74 76.34 80
7 02/14/2022 09:39:56 -0.02,-128.05 -0.88,-124.21 437.26 80
8 02/15/2022 22:01:54 0.02,-128.02 -0.31,-129.52 170.30 80
9 02/16/2022 21:45:50 0.02,-128.00 0.71,-124.99 343.37 80
10 02/18/2022 10:07:40 -0.02,-127.96 0.48,-130.26 262.44 80
